Wetterdaten: aktuell Samstag, 06.03.2021 12:05
Datum Zeit Temp. A. CL-Temp. Appar.-Temp. Windl. kp/qm RainR mm/h ThetaE GLFI WBI Feuchte A. Helligkeit % Mond El. Gewittergef. Feuchte abs. Nebelphasen Helligk. Schneefall UV-I Sonne El. Luftdruck Regen Wind Richtung Richtung Sonnenschein T Regen Solar Taupunkt Windchill Windben
06.03.2021 12:05 1,6 C -0,8 C -0,9 C 0,1 C 0,0 C 11,6 C 0,0 C 0,0 C 90 % 0 % 0 % 1 % 5 % 0 % 0 lf 0 lf 0 lf 31 cb 1029,4 hPa 0,0 mm 2,5 km/h (1 Bft) W-SW 247 0 min 0 min 0 W/m 0,1 C 1,6 C 5,0 km/h (1 Bft)
06.03.2021 12:00 1,6 C -1,0 C -0,7 C 0,1 C 0,0 C 11,5 C 0,0 C 0,0 C 89 % 0 % 0 % 1 % 5 % 0 % 0 lf 0 lf 0 lf 31 cb 1029,5 hPa 0,0 mm 1,7 km/h (1 Bft) W-NW 292 0 min 0 min 0 W/m -0,0 C 1,6 C 4,5 km/h (1 Bft)
06.03.2021 11:55 1,6 C -1,0 C -1,0 C 0,1 C 0,0 C 11,5 C 0,0 C 0,0 C 89 % 0 % 0 % 1 % 5 % 0 % 0 lf 0 lf 0 lf 31 cb 1029,5 hPa 0,0 mm 3,3 km/h (1 Bft) W 270 0 min 0 min 0 W/m -0,0 C 1,6 C 4,5 km/h (1 Bft)
06.03.2021 11:50 1,7 C -0,8 C -0,8 C 0,1 C 0,0 C 11,7 C 0,0 C 0,0 C 89 % 0 % 0 % 1 % 5 % 0 % 0 lf 0 lf 0 lf 31 cb 1029,6 hPa 0,0 mm 2,9 km/h (1 Bft) W 270 0 min 0 min 0 W/m 0,1 C 1,7 C 4,5 km/h (1 Bft)
06.03.2021 11:45 1,7 C -0,8 C -0,9 C 0,1 C 0,0 C 11,7 C 0,0 C 0,0 C 89 % 0 % 0 % 1 % 5 % 0 % 0 lf 0 lf 0 lf 31 cb 1029,7 hPa 0,0 mm 3,3 km/h (1 Bft) W-SW 247 0 min 0 min 0 W/m 0,1 C 1,7 C 5,0 km/h (1 Bft)
06.03.2021 11:40 1,7 C -0,8 C -1,6 C 0,2 C 0,0 C 11,7 C 0,0 C 0,0 C 89 % 0 % 0 % 1 % 5 % 0 % 0 lf 0 lf 0 lf 31 cb 1029,7 hPa 0,0 mm 7,0 km/h (2 Bft) W 270 0 min 0 min 0 W/m 0,1 C -0,4 C 7,0 km/h (2 Bft)
06.03.2021 11:35 1,8 C -0,7 C -0,7 C 0,3 C 0,0 C 11,9 C 0,0 C 0,0 C 89 % 0 % 0 % 1 % 5 % 0 % 0 lf 0 lf 0 lf 30 cb 1029,7 hPa 0,0 mm 2,9 km/h (1 Bft) SW 225 0 min 0 min 0 W/m 0,2 C 1,8 C 7,8 km/h (2 Bft)
06.03.2021 11:30 1,8 C -0,7 C -1,0 C 0,2 C 0,0 C 11,9 C 0,0 C 0,0 C 89 % 0 % 0 % 1 % 5 % 0 % 0 lf 0 lf 0 lf 30 cb 1029,7 hPa 0,0 mm 4,5 km/h (1 Bft) W 270 0 min 0 min 0 W/m 0,2 C 1,8 C 7,0 km/h (2 Bft)
06.03.2021 11:25 1,9 C -0,7 C -1,1 C 1,2 C 0,0 C 12,0 C 0,0 C 0,0 C 89 % 0 % 0 % 1 % 5 % 0 % 0 lf 0 lf 0 lf 30 cb 1029,6 hPa 0,0 mm 5,4 km/h (1 Bft) W-NW 292 0 min 0 min 0 W/m 0,3 C 0,4 C 16,1 km/h (3 Bft)
06.03.2021 11:20 2,0 C -0,5 C -0,6 C 0,4 C 0,0 C 12,2 C 0,0 C 0,0 C 89 % 6 % 0 % 1 % 5 % 0 % 6 lf 0 lf 0 lf 30 cb 1029,8 hPa 0,0 mm 3,7 km/h (1 Bft) W-SW 247 0 min 0 min 35 W/m 0,4 C 2,0 C 9,5 km/h (2 Bft)
06.03.2021 11:15 2,0 C -0,5 C 0,0 C 0,1 C 0,0 C 12,2 C 0,0 C 0,0 C 89 % 18 % 0 % 1 % 5 % 0 % 18 lf 0 lf 0 lf 30 cb 1029,7 hPa 0,0 mm 0,4 km/h (0 Bft) W 270 0 min 0 min 104 W/m 0,4 C 2,0 C 4,5 km/h (1 Bft)
06.03.2021 11:10 2,0 C -0,5 C -0,7 C 0,5 C 0,0 C 12,2 C 0,0 C 0,0 C 89 % 32 % 0 % 1 % 5 % 0 % 32 lf 0 lf 0 lf 29 cb 1029,6 hPa 0,0 mm 4,1 km/h (1 Bft) W-NW 292 0 min 0 min 185 W/m 0,4 C 2,0 C 9,9 km/h (2 Bft)
06.03.2021 11:05 2,0 C -0,7 C -1,1 C 0,7 C 0,0 C 12,1 C 0,0 C 0,0 C 88 % 62 % 0 % 1 % 5 % 0 % 62 lf 0 lf 1 lf 29 cb 1029,6 hPa 0,0 mm 5,8 km/h (2 Bft) W-SW 247 0 min 0 min 355 W/m 0,2 C 0,4 C 12,4 km/h (3 Bft)
06.03.2021 11:00 2,1 C -0,6 C -1,5 C 1,1 C 0,0 C 12,2 C 0,0 C 0,0 C 88 % 85 % 0 % 1 % 5 % 0 % 85 lf 0 lf 2 lf 29 cb 1029,4 hPa 0,0 mm 8,3 km/h (2 Bft) W-SW 247 5 min 0 min 484 W/m 0,3 C -0,4 C 15,3 km/h (3 Bft)
06.03.2021 10:55 2,1 C -1,4 C -1,4 C 0,6 C 0,0 C 11,9 C 0,0 C 0,0 C 88 % 97 % 0 % 1 % 5 % 0 % 88 lf 0 lf 2 lf 29 cb 1029,5 hPa 0,0 mm 7,8 km/h (2 Bft) S-SW 202 5 min 0 min 547 W/m 0,3 C -0,2 C 11,1 km/h (2 Bft)
06.03.2021 10:50 2,1 C -1,4 C -1,0 C 0,4 C 0,0 C 11,9 C 0,0 C 0,0 C 88 % 100 % 0 % 1 % 5 % 0 % 94 lf 0 lf 2 lf 28 cb 1029,4 hPa 0,0 mm 5,8 km/h (2 Bft) W-SW 247 5 min 0 min 558 W/m 0,3 C 0,5 C 9,5 km/h (2 Bft)
06.03.2021 10:45 2,2 C -1,4 C -0,7 C 0,6 C 0,0 C 12,1 C 0,0 C 0,0 C 88 % 100 % 0 % 1 % 5 % 0 % 97 lf 0 lf 2 lf 28 cb 1029,3 hPa 0,0 mm 4,5 km/h (1 Bft) SW 225 5 min 0 min 552 W/m 0,4 C 2,2 C 11,6 km/h (2 Bft)
06.03.2021 10:40 2,2 C -1,2 C 0,0 C 0,1 C 0,0 C 12,2 C 0,0 C 0,0 C 89 % 100 % 0 % 1 % 5 % 0 % 100 lf 0 lf 2 lf 28 cb 1029,4 hPa 0,0 mm 1,2 km/h (1 Bft) W 270 5 min 0 min 546 W/m 0,6 C 2,2 C 5,0 km/h (1 Bft)
06.03.2021 10:35 2,2 C -1,4 C 0,0 C 0,1 C 0,0 C 12,1 C 0,0 C 0,0 C 88 % 100 % 0 % 1 % 5 % 0 % 100 lf 0 lf 2 lf 27 cb 1029,3 hPa 0,0 mm 1,2 km/h (1 Bft) W 270 5 min 0 min 540 W/m 0,4 C 2,2 C 3,3 km/h (1 Bft)
_ Min-Zeit 06:20 15:45 07:10 18:40 13:00 00:05 13:00 13:00 15:25 17:15 13:00 13:00 14:05 13:00 17:15 13:00 15:55 17:45 13:20 - 18:55 - - - - - 15:45 07:30 18:55
Minimum _ -2,9 C -12,6 C -6,9 C 0,0 C 0,0 C 4,3 C 0,0 C 0,0 C 46 % 0 % 0 % 1 % 3 % 0 % 0 lf 0 lf 0 lf 0 cb 1025,7 hPa - 0,0 km/h (0 Bft) - - - - - -6,5 C -6,3 C 0,0 km/h (0 Bft)
_ Max-Zeit 14:15 11:10 10:25 13:50 13:00 13:25 13:00 13:00 08:15 13:00 05:20 13:00 09:35 13:00 13:00 13:00 13:00 11:40 01:25 13:00 13:50 - - 13:05 13:00 13:00 10:40 10:25 13:50
Maximum _ 4,6 C -0,5 C 0,1 C 4,8 C 0,0 C 13,0 C 0,0 C 0,0 C 93 % 100 % 13 % 1 % 5 % 0 % 100 lf 0 lf 3 lf 31 cb 1030,5 hPa 0,0 mm 26,8 km/h
W-NW (4 Bft)
- - 5 min 0 min 594 W/m 0,6 C 2,2 C 31,8 km/h
W-NW (5 Bft)
Durchschnitt _ 0,3 C -6,2 C -3,5 C 0,6 C 0,0 C 8,0 C 0,0 C 0,0 C 76 % 33 % 3 % 1 % 4 % 0 % 32 lf 0 lf 1 lf 10 cb 1028,6 hPa #0,0 mm 6,5 km/h (2 Bft) SW - #2:50 h #0 min. 298 W/m -3,8 C -1,1 C 8,8 km/h (2 Bft)